Wind_Speed
17 15 13 10 8 7 4 2 1 3 5 7 7 8 9 10 11 12 13 14 14 15 15 15 15 15 15 15 15 15 14 14 12 11 10 9 8 7 7 6 5 4 4 3
19 15 13 11 10 9 7 4 4 4 5 6 8 8 6 7 8 10 11 12 13 13 14 14 14 14 14 15 14 14 14 14 13 12 11 10 9 8 7 6 6 5 5 4
19 16 16 15 13 11 9 8 7 7 7 8 9 8 7 6 6 7 9 10 11 12 12 12 12 13 13 14 14 14 14 14 14 13 12 11 9 8 8 7 7 6 5 5
21 20 19 17 15 12 12 11 11 10 10 9 10 9 8 6 5 5 6 7 8 10 11 11 11 12 12 12 13 13 14 13 13 13 12 11 10 9 8 8 7 7 7 6
23 22 21 18 15 14 14 13 14 13 12 11 11 10 9 7 6 4 4 5 6 7 8 9 10 10 10 11 12 13 13 14 14 13 12 11 10 10 9 8 8 7 7 7
25 25 23 19 16 17 17 17 16 15 13 13 12 11 10 9 7 6 4 4 4 4 5 6 8 8 9 10 11 12 12 13 14 13 13 12 11 10 10 9 9 8 8 8
26 26 25 22 20 19 19 19 18 17 15 13 12 12 10 9 9 8 5 4 4 4 4 5 6 7 7 8 9 10 11 12 13 13 13 12 11 10 10 10 10 9 9 9
26 27 25 23 22 21 21 21 21 19 17 15 15 15 11 10 10 9 7 6 5 3 2 3 4 5 6 7 8 9 10 11 12 12 12 12 11 10 10 10 10 10 10 10
27 26 24 23 22 22 23 22 20 19 18 18 18 15 12 11 11 9 8 7 4 3 2 2 3 4 4 6 6 7 9 10 11 12 12 12 11 10 10 10 11 11 11 11
27 27 27 25 24 24 23 21 22 22 21 21 20 17 13 11 11 10 8 8 6 5 4 3 3 4 5 6 5 7 8 9 10 11 12 12 12 12 11 11 11 12 13 13
28 28 27 27 27 25 25 25 24 23 22 21 21 19 15 14 11 11 10 9 10 8 7 5 5 5 5 6 5 6 7 8 9 10 10 11 12 12 12 12 12 13 13 13
29 29 29 29 28 28 26 26 26 26 25 23 22 21 17 15 13 12 12 11 11 11 10 8 6 7 7 6 6 6 7 8 9 10 10 10 11 12 12 13 13 13 13 13
31 31 30 30 30 29 29 28 28 27 27 26 26 24 20 18 16 16 15 14 14 13 12 11 9 9 8 9 9 9 9 9 10 10 11 11 11 12 13 13 13 14 14 14
33 33 33 32 30 30 30 30 30 29 29 29 28 25 22 21 20 19 18 16 16 15 13 13 12 11 10 11 11 11 11 11 11 11 12 12 12 13 13 14 14 14 15 15
34 35 35 34 32 31 32 32 32 31 30 30 28 26 23 21 21 20 19 17 17 17 17 15 15 14 13 13 13 13 13 13 13 13 14 14 14 14 14 15 15 16 16 16
35 36 35 35 34 34 33 32 33 33 32 31 29 28 25 23 22 22 22 20 20 20 18 17 17 16 14 14 14 15 15 15 15 15 15 15 15 16 16 17 17 17 17 18
35 36 37 36 35 34 35 33 33 34 34 33 32 30 27 26 25 23 23 21 21 20 20 19 18 18 17 17 17 17 18 18 18 17 17 17 17 18 18 19 18 18 18 19
36 35 36 37 37 38 35 34 34 34 34 34 32 32 30 28 27 26 25 24 23 22 22 21 21 22 21 20 20 20 21 21 20 20 20 20 20 20 20 20 20 20 20 20
37 35 35 36 38 38 36 35 35 36 35 34 34 33 32 31 29 28 27 26 25 25 24 24 23 23 23 23 23 23 23 23 23 23 23 23 23 22 22 22 22 21 21 22
38 37 36 36 37 39 36 35 35 36 37 36 36 35 34 33 31 30 29 29 28 27 27 27 26 26 27 27 26 26 26 27 26 26 26 26 25 25 24 23 24 24 24 24
40 39 38 37 38 39 37 36 36 38 38 36 36 36 35 35 34 33 33 32 30 30 30 30 30 30 30 30 30 30 30 29 29 29 28 28 28 27 27 26 25 26 26 25
39 40 39 38 39 39 37 37 39 39 38 37 37 36 36 36 35 36 36 35 33 33 33 33 34 33 32 32 33 32 32 31 31 31 30 29 29 29 28 28 28 28 28 28
39 39 39 39 38 37 37 38 39 39 38 37 38 38 39 39 38 37 36 36 35 34 34 35 35 35 34 34 34 33 33 33 32 32 31 31 30 30 30 30 30 29 29 29
39 38 38 38 38 37 36 36 37 37 38 38 38 38 39 39 38 38 36 35 35 35 36 35 35 35 35 35 34 34 34 33 33 32 32 32 32 32 31 30 30 30 30 30
38 38 38 37 37 36 35 35 35 36 36 36 36 37 37 38 39 39 40 38 36 36 36 36 36 37 36 35 35 34 34 34 34 33 33 33 33 31 31 31 32 32 32 31
37 36 37 37 36 36 35 35 35 35 35 36 36 36 37 37 37 37 38 39 39 38 37 37 37 36 37 36 35 34 35 34 34 33 33 32 32 32 32 32 32 32 33 33
Wind_Direction
191 186 177 170 166 156 151 166 283 332 344 345 357 13 19 24 35 39 38 40 42 44 46 49 50 51 52 53 55 58 59 58 55 53 52 51 49 45 42 41 38 28 13 355
199 193 181 181 185 187 183 210 241 265 294 308 327 342 5 19 33 38 41 40 41 42 43 46 49 51 52 51 51 52 53 51 48 46 45 45 43 40 38 36 30 21 8 353
205 193 187 196 200 205 199 220 243 260 263 284 295 309 327 355 29 42 46 42 40 41 41 43 47 49 49 48 48 48 47 46 43 41 39 37 36 33 32 28 23 18 10 4
205 195 196 203 209 212 220 231 237 243 253 271 279 286 297 319 356 32 38 39 37 39 38 40 43 46 47 46 45 44 43 41 40 38 35 33 32 28 24 18 15 13 9 3
205 198 202 207 210 215 228 234 233 237 248 256 267 270 279 302 325 344 11 24 25 32 38 41 40 42 44 44 42 40 39 37 34 32 32 29 29 27 23 18 14 11 7 1
208 205 207 208 208 217 227 229 227 230 240 250 263 266 273 293 304 315 321 341 352 14 37 37 38 37 39 39 39 38 35 33 31 29 27 25 25 24 21 17 14 11 6 360
212 210 210 210 212 218 223 226 225 226 232 245 252 260 272 287 294 299 307 315 330 334 17 26 26 29 30 32 33 32 29 28 26 24 22 19 18 17 16 12 9 7 2 359
216 213 212 214 218 222 221 224 226 229 233 243 249 260 272 268 275 284 283 286 303 322 9 19 11 15 17 18 20 22 22 20 18 18 17 14 12 12 12 12 10 5 0 354
219 216 212 215 222 225 223 229 231 235 240 246 248 254 256 262 263 270 263 262 283 293 303 341 345 352 352 355 2 4 7 9 9 10 9 8 9 9 8 6 5 360 356 353
220 217 212 213 219 222 224 227 229 233 242 248 253 253 254 259 267 264 257 259 266 273 279 288 304 311 323 329 338 344 348 352 357 2 6 9 8 7 6 2 359 355 351 351
222 221 214 215 219 220 222 225 229 235 240 245 253 255 255 257 262 260 264 270 262 263 282 290 295 292 297 307 313 327 331 335 341 344 349 355 357 358 357 353 351 348 348 350
223 222 219 217 219 221 224 226 229 234 238 244 251 257 260 259 257 262 267 273 266 264 266 267 276 283 288 293 292 299 309 316 323 329 336 342 345 345 344 344 343 342 343 342
220 223 222 219 218 220 224 225 228 233 238 243 250 255 258 262 263 271 273 272 269 267 266 261 263 275 282 285 285 286 293 301 312 315 319 325 329 331 332 334 335 335 335 336
221 223 223 222 221 223 226 226 227 231 236 240 246 250 253 260 264 270 271 268 267 260 257 263 267 275 275 281 286 285 287 295 304 308 310 310 313 318 322 324 325 326 327 327
223 224 224 224 225 226 227 226 228 231 235 239 242 245 247 254 262 264 261 262 265 268 267 268 270 271 271 280 286 286 286 291 297 299 302 304 305 309 313 315 316 317 320 320
225 227 226 226 227 229 230 227 228 232 234 236 239 244 245 248 255 256 257 263 263 266 267 264 275 280 276 280 282 284 286 288 291 294 296 299 301 302 304 306 308 310 312 314
228 229 230 229 229 231 232 229 230 233 236 237 239 243 246 248 251 257 260 260 263 264 267 269 275 280 279 277 277 279 285 287 291 291 291 293 295 296 296 299 302 304 305 307
231 232 232 230 229 231 232 231 231 232 236 240 241 243 247 248 249 254 258 260 265 267 269 273 277 278 275 273 275 277 278 282 285 286 288 290 292 296 297 300 299 303 302 304
232 233 234 232 230 231 230 231 232 233 235 237 240 241 245 248 249 251 255 261 266 267 270 272 273 274 273 273 274 276 278 280 281 282 283 285 287 291 293 296 296 298 302 304
232 233 234 233 231 230 229 230 233 236 236 237 240 243 246 249 251 254 256 260 265 266 269 271 271 272 272 272 273 274 276 279 279 278 279 281 283 285 287 290 293 296 299 301
231 233 234 234 233 232 230 230 233 236 238 240 243 246 248 250 252 256 259 260 262 264 265 266 267 270 271 271 272 274 276 276 276 274 275 277 279 280 283 285 288 292 294 296
232 233 234 235 235 234 232 232 234 237 240 242 244 246 248 251 254 257 260 261 262 263 263 265 266 268 269 270 272 274 274 273 273 271 273 274 275 277 281 282 285 287 289 292
233 234 236 237 238 238 237 236 237 239 241 243 245 246 249 252 255 257 259 260 262 263 264 266 267 269 269 270 271 272 273 272 271 271 273 273 274 276 279 280 282 284 286 289
234 236 238 239 239 240 239 239 239 241 242 246 248 249 250 252 255 256 258 259 261 262 264 265 267 268 270 270 270 271 271 272 272 271 271 272 275 277 278 278 280 282 284 285
234 236 238 240 241 241 240 240 241 244 246 249 251 252 254 254 255 257 258 260 261 262 264 266 267 268 269 270 270 270 271 271 271 272 271 273 273 274 276 277 278 279 280 283
233 237 240 241 241 242 240 241 243 245 247 248 250 252 254 256 257 258 260 260 261 263 265 267 268 268 268 269 270 269 269 270 271 272 272 270 272 274 275 276 276 277 279 281
Height
5925 5928 5929 5930 5931 5932 5933 5934 5934 5935 5934 5933 5933 5933 5933 5932 5931 5930 5928 5927 5925 5923 5922 5920 5919 5917 5916 5914 5912 5911 5909 5908 5907 5906 5905 5904 5904 5903 5902 5901 5900 5900 5899 5899
5923 5925 5928 5929 5930 5931 5932 5933 5933 5934 5934 5934 5933 5933 5933 5933 5932 5931 5929 5928 5927 5925 5924 5922 5921 5919 5918 5916 5915 5913 5912 5910 5909 5907 5906 5905 5904 5903 5902 5902 5901 5900 5899 5898
5919 5924 5925 5926 5928 5929 5930 5932 5932 5933 5934 5933 5933 5933 5933 5933 5932 5931 5930 5929 5928 5926 5925 5924 5922 5921 5919 5918 5916 5915 5913 5912 5910 5909 5907 5906 5905 5904 5903 5902 5901 5900 5899 5898
5916 5920 5921 5923 5924 5927 5929 5931 5931 5932 5932 5932 5932 5932 5932 5931 5932 5931 5930 5929 5928 5927 5926 5925 5924 5922 5921 5920 5918 5917 5915 5913 5912 5910 5909 5907 5906 5904 5903 5902 5901 5900 5899 5898
5912 5916 5918 5919 5922 5924 5927 5929 5930 5930 5930 5930 5930 5930 5931 5930 5930 5930 5929 5928 5928 5928 5927 5926 5925 5923 5922 5921 5920 5918 5916 5914 5912 5911 5909 5908 5906 5905 5904 5902 5901 5900 5899 5897
5908 5911 5913 5916 5919 5921 5924 5926 5927 5927 5928 5928 5929 5928 5929 5928 5928 5928 5928 5927 5927 5927 5926 5926 5925 5924 5923 5922 5920 5919 5917 5916 5914 5912 5910 5908 5906 5905 5904 5902 5901 5899 5898 5897
5903 5906 5909 5912 5914 5917 5920 5922 5923 5924 5924 5926 5926 5926 5927 5927 5927 5926 5926 5926 5926 5926 5926 5925 5925 5925 5923 5922 5921 5919 5918 5916 5914 5913 5911 5909 5907 5905 5904 5902 5901 5899 5897 5896
5897 5901 5905 5908 5911 5913 5916 5918 5920 5921 5921 5923 5923 5922 5925 5925 5925 5924 5924 5924 5925 5925 5925 5924 5924 5924 5923 5922 5921 5920 5918 5917 5915 5913 5911 5909 5907 5905 5904 5902 5901 5899 5897 5896
5892 5897 5901 5904 5907 5910 5911 5913 5916 5917 5917 5918 5918 5920 5921 5921 5922 5922 5921 5922 5922 5923 5923 5923 5923 5922 5922 5921 5921 5920 5918 5917 5915 5913 5911 5909 5907 5905 5903 5902 5900 5898 5897 5895
5887 5891 5896 5899 5901 5904 5907 5910 5911 5912 5913 5913 5914 5915 5917 5918 5919 5919 5919 5919 5920 5921 5921 5921 5920 5920 5920 5920 5919 5918 5917 5916 5915 5913 5911 5909 5907 5905 5903 5901 5899 5898 5896 5894
5881 5886 5890 5893 5895 5899 5902 5904 5905 5907 5908 5909 5909 5912 5913 5914 5915 5915 5916 5917 5918 5918 5918 5918 5918 5919 5918 5918 5917 5917 5916 5915 5914 5912 5910 5908 5906 5904 5902 5900 5898 5896 5894 5892
5874 5879 5882 5887 5891 5893 5896 5898 5901 5903 5904 5905 5905 5909 5908 5910 5911 5912 5913 5914 5915 5915 5915 5915 5916 5916 5916 5916 5915 5915 5914 5913 5912 5910 5908 5907 5905 5903 5901 5899 5897 5894 5892 5890
5868 5872 5876 5880 5886 5888 5890 5892 5895 5897 5898 5899 5901 5904 5904 5905 5907 5908 5909 5910 5911 5912 5912 5912 5912 5912 5913 5913 5912 5912 5911 5911 5910 5908 5907 5905 5903 5901 5899 5897 5895 5892 5890 5888
5861 5865 5870 5874 5878 5881 5883 5886 5889 5891 5892 5893 5896 5898 5900 5901 5902 5904 5904 5906 5906 5907 5907 5908 5908 5909 5909 5909 5909 5908 5908 5907 5906 5905 5903 5902 5900 5898 5897 5894 5892 5890 5888 5886
5854 5858 5862 5867 5872 5874 5877 5880 5882 5884 5886 5888 5891 5892 5895 5897 5898 5899 5899 5901 5902 5903 5903 5905 5905 5905 5904 5905 5905 5905 5905 5904 5903 5901 5900 5898 5896 5895 5894 5892 5890 5887 5885 5883
5847 5851 5856 5860 5864 5867 5871 5874 5877 5879 5881 5882 5884 5887 5890 5891 5893 5893 5894 5895 5896 5898 5899 5900 5901 5901 5900 5901 5901 5901 5900 5899 5898 5897 5896 5895 5893 5892 5890 5888 5886 5884 5882 5879
5840 5845 5849 5853 5857 5860 5863 5868 5870 5872 5875 5877 5879 5882 5883 5885 5887 5889 5890 5891 5892 5893 5894 5895 5896 5896 5896 5896 5896 5896 5896 5894 5893 5893 5892 5890 5889 5887 5885 5883 5882 5880 5878 5876
5833 5837 5841 5845 5850 5852 5859 5861 5863 5865 5868 5870 5873 5875 5877 5880 5882 5883 5885 5886 5887 5888 5889 5890 5890 5890 5890 5890 5890 5890 5890 5889 5889 5888 5887 5885 5884 5882 5880 5879 5877 5875 5873 5871
5825 5829 5833 5836 5840 5844 5850 5853 5856 5858 5861 5864 5866 5869 5871 5873 5875 5877 5879 5880 5882 5883 5883 5884 5884 5884 5885 5884 5884 5883 5883 5882 5882 5882 5881 5879 5878 5877 5875 5873 5871 5869 5868 5866
5817 5821 5825 5828 5832 5835 5842 5846 5848 5851 5853 5857 5859 5862 5865 5867 5868 5871 5872 5874 5875 5876 5876 5876 5877 5877 5877 5877 5877 5876 5875 5875 5875 5874 5874 5873 5871 5870 5869 5868 5866 5864 5862 5860
5808 5812 5816 5820 5823 5827 5834 5838 5840 5844 5847 5851 5853 5855 5857 5859 5862 5863 5865 5866 5867 5867 5868 5869 5869 5869 5869 5869 5869 5869 5868 5868 5867 5866 5866 5865 5864 5863 5862 5860 5859 5857 5856 5854
5800 5804 5808 5811 5815 5821 5825 5829 5832 5835 5839 5842 5845 5847 5849 5851 5853 5854 5856 5857 5858 5858 5859 5860 5860 5860 5860 5860 5860 5860 5859 5859 5858 5857 5856 5856 5855 5855 5854 5853 5851 5850 5848 5847
5791 5796 5800 5804 5809 5812 5816 5820 5823 5827 5830 5833 5836 5839 5841 5843 5844 5846 5847 5847 5848 5849 5850 5851 5851 5851 5851 5851 5851 5850 5850 5849 5849 5848 5848 5847 5846 5846 5845 5844 5843 5842 5841 5839
5783 5787 5791 5795 5799 5803 5807 5811 5815 5818 5822 5825 5827 5830 5832 5834 5835 5836 5836 5837 5838 5839 5840 5841 5841 5842 5842 5842 5841 5841 5841 5840 5839 5838 5838 5838 5837 5837 5836 5835 5834 5833 5832 5831
5776 5779 5783 5786 5791 5794 5799 5803 5806 5810 5813 5815 5818 5820 5823 5824 5826 5826 5826 5827 5828 5829 5830 5830 5831 5831 5831 5831 5831 5830 5830 5830 5830 5829 5828 5828 5827 5827 5826 5825 5824 5823 5823 5821
5768 5771 5775 5779 5783 5787 5790 5794 5797 5801 5804 5806 5809 5811 5812 5814 5815 5815 5816 5817 5817 5818 5819 5819 5820 5820 5820 5821 5821 5820 5820 5820 5819 5819 5818 5818 5817 5817 5817 5816 5815 5814 5813 5812